| time (UTC) | temp F | wind direction | speed MPH | gust MPH | rain 1hr in | rain 24hr in | rain mn in | humidity % | barometer mb |
| 20260902121301 | 82 | 275 | 2.0 | 5.0 | 0.00 | 0.00 | 0.00 | 51 | 1019.9 |
| 20260902120759 | 82 | 13 | 2.0 | 5.0 | 0.00 | 0.00 | 0.00 | 54 | 1019.9 |
| 20260902115759 | 81 | 309 | 2.0 | 6.0 | 0.00 | 0.00 | 0.00 | 55 | 1020.1 |
| 20260902114259 | 80 | 201 | 2.0 | 5.0 | 0.00 | 0.00 | 0.00 | 60 | 1020.1 |
| 20260902113759 | 80 | 202 | 2.0 | 3.0 | 0.00 | 0.00 | 0.00 | 61 | 1020.1 |
| 20260902112759 | 80 | 202 | 2.0 | 5.0 | 0.00 | 0.00 | 0.00 | 57 | 1020.3 |
| 20260902112300 | 80 | 201 | 2.0 | 5.0 | 0.00 | 0.00 | 0.00 | 57 | 1020.3 |
| 20260902111759 | 79 | 202 | 2.0 | 5.0 | 0.00 | 0.00 | 0.00 | 57 | 1020.3 |
| 20260902111259 | 79 | 202 | 2.0 | 5.0 | 0.00 | 0.00 | 0.00 | 57 | 1020.5 |
| 20260902110759 | 78 | 200 | 2.0 | 3.0 | 0.00 | 0.00 | 0.00 | 59 | 1020.5 |
| 20260902110259 | 78 | 200 | 2.0 | 3.0 | 0.00 | 0.00 | 0.00 | 61 | 1020.5 |
| 20260902105759 | 78 | 201 | 2.0 | 3.0 | 0.00 | 0.00 | 0.00 | 61 | 1020.9 |
| 20260902105259 | 78 | 200 | 2.0 | 5.0 | 0.00 | 0.00 | 0.00 | 61 | 1020.9 |
| 20260902104800 | 77 | 200 | 2.0 | 5.0 | 0.00 | 0.00 | 0.00 | 61 | 1020.9 |
| 20260902103759 | 77 | 201 | 2.0 | 5.0 | 0.00 | 0.00 | 0.00 | 60 | 1021.0 |
| 20260902103259 | 77 | 201 | 2.0 | 5.0 | 0.00 | 0.00 | 0.00 | 62 | 1021.0 |
| 20260902102759 | 77 | 203 | 2.0 | 5.0 | 0.00 | 0.00 | 0.00 | 61 | 1021.1 |
| 20260902102300 | 77 | 202 | 2.0 | 5.0 | 0.00 | 0.00 | 0.00 | 63 | 1021.1 |
| 20260902101759 | 77 | 196 | 2.0 | 5.0 | 0.00 | 0.00 | 0.00 | 63 | 1021.1 |
| 20260902101259 | 76 | 197 | 2.0 | 5.0 | 0.00 | 0.00 | 0.00 | 63 | 1021.2 |
| 20260902100300 | 76 | 186 | 2.0 | 5.0 | 0.00 | 0.00 | 0.00 | 63 | 1021.2 |
| 20260902095759 | 76 | 182 | 2.0 | 5.0 | 0.00 | 0.00 | 0.00 | 62 | 1021.1 |
| 20260902095259 | 76 | 213 | 2.0 | 5.0 | 0.00 | 0.00 | 0.00 | 63 | 1021.1 |
| 20260902093800 | 75 | 211 | 2.0 | 5.0 | 0.00 | 0.00 | 0.00 | 65 | 1021.3 |
| 20260902093300 | 74 | 211 | 2.0 | 5.0 | 0.00 | 0.00 | 0.00 | 65 | 1021.3 |
| 20260902092800 | 74 | 243 | 2.0 | 5.0 | 0.00 | 0.00 | 0.00 | 66 | 1021.6 |
| 20260902092259 | 74 | 238 | 2.0 | 5.0 | 0.00 | 0.00 | 0.00 | 67 | 1021.6 |
| 20260902091259 | 73 | 338 | 2.0 | 5.0 | 0.00 | 0.00 | 0.00 | 69 | 1021.5 |
| 20260902090259 | 72 | 7 | 2.0 | 3.0 | 0.00 | 0.00 | 0.00 | 70 | 1021.5 |
| 20260902085759 | 71 | 15 | 2.0 | 3.0 | 0.00 | 0.00 | 0.00 | 71 | 1021.7 |
| 20260902085259 | 71 | 235 | 1.0 | 3.0 | 0.00 | 0.00 | 0.00 | 73 | 1021.7 |
| 20260902084759 | 70 | 10 | 2.0 | 3.0 | 0.00 | 0.00 | 0.00 | 73 | 1021.7 |
| 20260902083800 | 69 | 11 | 2.0 | 2.0 | 0.00 | 0.00 | 0.00 | 74 | 1021.7 |
| 20260902083300 | 69 | 11 | 1.0 | 2.0 | 0.00 | 0.00 | 0.00 | 74 | 1021.7 |
| 20260902082759 | 69 | 11 | 2.0 | 3.0 | 0.00 | 0.00 | 0.00 | 75 | 1021.7 |
| 20260902082300 | 68 | 11 | 2.0 | 3.0 | 0.00 | 0.00 | 0.00 | 75 | 1021.7 |
| 20260902081759 | 68 | 11 | 2.0 | 5.0 | 0.00 | 0.00 | 0.00 | 76 | 1021.7 |
| 20260902081259 | 68 | 11 | 2.0 | 5.0 | 0.00 | 0.00 | 0.00 | 77 | 1021.8 |
| 20260902080759 | 67 | 357 | 2.0 | 5.0 | 0.00 | 0.00 | 0.00 | 78 | 1021.8 |
| 20260902075800 | 66 | 346 | 1.0 | 5.0 | 0.00 | 0.00 | 0.00 | 81 | 1021.8 |
| 20260902074759 | 66 | 299 | 1.0 | 3.0 | 0.00 | 0.00 | 0.00 | 82 | 1021.8 |
| 20260902074259 | 65 | 299 | 0.0 | 3.0 | 0.00 | 0.00 | 0.00 | 83 | 1021.8 |
| 20260902073259 | 65 | 280 | 1.0 | 2.0 | 0.00 | 0.00 | 0.00 | 85 | 1021.8 |
| 20260902072800 | 64 | 280 | 1.0 | 2.0 | 0.00 | 0.00 | 0.00 | 86 | 1021.8 |
| 20260902072300 | 64 | 280 | 0.0 | 2.0 | 0.00 | 0.00 | 0.00 | 87 | 1021.8 |
| 20260902071800 | 64 | 280 | 1.0 | 2.0 | 0.00 | 0.00 | 0.00 | 88 | 1021.8 |
| 20260902071300 | 64 | 280 | 2.0 | 2.0 | 0.00 | 0.00 | 0.00 | 88 | 1021.7 |
| 20260902070800 | 63 | 280 | 2.0 | 5.0 | 0.00 | 0.00 | 0.00 | 88 | 1021.7 |
| 20260902070300 | 63 | 280 | 2.0 | 5.0 | 0.00 | 0.00 | 0.00 | 88 | 1021.7 |
| 20260902065259 | 62 | 293 | 2.0 | 3.0 | 0.00 | 0.00 | 0.00 | 90 | 1021.7 |
| 20260902064800 | 62 | 39 | 2.0 | 5.0 | 0.00 | 0.00 | 0.00 | 90 | 1021.7 |
| 20260902063259 | 62 | 1 | 0.0 | 3.0 | 0.00 | 0.00 | 0.00 | 90 | 1021.8 |
| 20260902062800 | 62 | 1 | 1.0 | 2.0 | 0.00 | 0.00 | 0.00 | 90 | 1021.8 |
| 20260902062259 | 62 | 1 | 1.0 | 2.0 | 0.00 | 0.00 | 0.00 | 90 | 1021.8 |
| 20260902061800 | 62 | 1 | 1.0 | 2.0 | 0.00 | 0.00 | 0.00 | 90 | 1021.8 |
| 20260902060759 | 62 | 1 | 1.0 | 2.0 | 0.00 | 0.00 | 0.00 | 90 | 1021.7 |
| 20260902060259 | 62 | 1 | 1.0 | 3.0 | 0.00 | 0.00 | 0.00 | 90 | 1021.7 |
| 20260902055800 | 62 | 1 | 2.0 | 3.0 | 0.00 | 0.00 | 0.00 | 90 | 1021.7 |
| 20260902055300 | 62 | 2 | 2.0 | 5.0 | 0.00 | 0.00 | 0.00 | 90 | 1021.7 |
| 20260902054800 | 62 | 2 | 1.0 | 5.0 | 0.00 | 0.00 | 0.00 | 90 | 1021.7 |
| 20260902054259 | 62 | 359 | 0.0 | 5.0 | 0.00 | 0.00 | 0.00 | 90 | 1021.6 |
| 20260902053800 | 62 | 313 | 1.0 | 5.0 | 0.00 | 0.00 | 0.00 | 90 | 1021.6 |
| 20260902052800 | 62 | 8 | 2.0 | 3.0 | 0.00 | 0.00 | 0.00 | 90 | 1021.5 |
| 20260902052300 | 62 | 8 | 2.0 | 3.0 | 0.00 | 0.00 | 0.00 | 90 | 1021.5 |
| 20260902051800 | 62 | 351 | 2.0 | 5.0 | 0.00 | 0.00 | 0.00 | 90 | 1021.5 |
| 20260902051300 | 62 | 4 | 2.0 | 5.0 | 0.00 | 0.00 | 0.00 | 90 | 1021.5 |
| 20260902050800 | 62 | 5 | 1.0 | 3.0 | 0.00 | 0.00 | 0.00 | 90 | 1021.5 |
| 20260902045800 | 62 | 5 | 1.0 | 2.0 | 0.00 | 0.00 | 0.00 | 89 | 1021.3 |
| 20260902045300 | 62 | 5 | 1.0 | 2.0 | 0.00 | 0.00 | 0.00 | 89 | 1021.3 |
| 20260902044800 | 62 | 5 | 1.0 | 3.0 | 0.00 | 0.00 | 0.00 | 90 | 1021.3 |
| 20260902044300 | 62 | 27 | 0.0 | 3.0 | 0.00 | 0.00 | 0.00 | 90 | 1021.3 |
| 20260902043800 | 62 | 7 | 1.0 | 3.0 | 0.00 | 0.00 | 0.00 | 90 | 1021.3 |
| 20260902043259 | 62 | 291 | 1.0 | 3.0 | 0.00 | 0.00 | 0.00 | 89 | 1021.3 |
| 20260902042800 | 63 | 291 | 2.0 | 3.0 | 0.00 | 0.00 | 0.00 | 89 | 1021.2 |
| 20260902042300 | 63 | 296 | 2.0 | 3.0 | 0.00 | 0.00 | 0.00 | 89 | 1021.2 |
| 20260902041800 | 63 | 262 | 1.0 | 5.0 | 0.00 | 0.00 | 0.00 | 89 | 1021.2 |
| 20260902041300 | 63 | 283 | 0.0 | 5.0 | 0.00 | 0.00 | 0.00 | 89 | 1021.2 |
| 20260902040800 | 63 | 271 | 0.0 | 3.0 | 0.00 | 0.00 | 0.00 | 88 | 1021.2 |
| 20260902035759 | 63 | 8 | 1.0 | 3.0 | 0.00 | 0.00 | 0.00 | 88 | 1021.2 |
| 20260902035259 | 63 | 8 | 1.0 | 2.0 | 0.00 | 0.00 | 0.00 | 88 | 1021.2 |
| 20260902034300 | 63 | 8 | 2.0 | 5.0 | 0.00 | 0.00 | 0.00 | 88 | 1021.2 |
| 20260902033800 | 63 | 8 | 2.0 | 5.0 | 0.00 | 0.00 | 0.00 | 88 | 1021.2 |
| 20260902033259 | 63 | 6 | 1.0 | 5.0 | 0.00 | 0.00 | 0.00 | 87 | 1021.2 |
| 20260902032800 | 63 | 8 | 1.0 | 5.0 | 0.00 | 0.00 | 0.00 | 87 | 1021.0 |
| 20260902031800 | 64 | 305 | 0.0 | 0.0 | 0.00 | 0.00 | 0.00 | 87 | 1021.0 |
| 20260902031300 | 64 | 305 | 0.0 | 2.0 | 0.00 | 0.00 | 0.00 | 87 | 1021.2 |
| 20260902030800 | 64 | 305 | 1.0 | 2.0 | 0.00 | 0.00 | 0.00 | 86 | 1021.2 |
| 20260902025801 | 64 | 305 | 1.0 | 5.0 | 0.00 | 0.00 | 0.00 | 86 | 1021.2 |
| 20260902025300 | 64 | 305 | 0.0 | 5.0 | 0.00 | 0.00 | 0.00 | 85 | 1021.2 |
| 20260902024800 | 64 | 5 | 0.0 | 3.0 | 0.00 | 0.00 | 0.00 | 85 | 1021.2 |
| 20260902024259 | 64 | 5 | 0.0 | 2.0 | 0.00 | 0.00 | 0.00 | 86 | 1021.2 |
| 20260902023800 | 64 | 5 | 1.0 | 2.0 | 0.00 | 0.00 | 0.00 | 86 | 1021.2 |
| 20260902023300 | 64 | 5 | 1.0 | 2.0 | 0.00 | 0.00 | 0.00 | 85 | 1021.2 |
| 20260902022800 | 64 | 5 | 2.0 | 3.0 | 0.00 | 0.00 | 0.00 | 86 | 1021.2 |
| 20260902022300 | 64 | 5 | 2.0 | 3.0 | 0.00 | 0.00 | 0.00 | 86 | 1021.2 |
| 20260902021800 | 64 | 5 | 2.0 | 3.0 | 0.00 | 0.00 | 0.00 | 86 | 1021.2 |
| 20260902021300 | 64 | 5 | 1.0 | 3.0 | 0.00 | 0.00 | 0.00 | 86 | 1021.1 |
| 20260902020800 | 65 | 5 | 1.0 | 3.0 | 0.00 | 0.00 | 0.00 | 85 | 1021.1 |
| 20260902020301 | 65 | 9 | 1.0 | 3.0 | 0.00 | 0.00 | 0.00 | 84 | 1021.1 |
| 20260902015800 | 65 | 9 | 2.0 | 3.0 | 0.00 | 0.00 | 0.00 | 85 | 1021.1 |
| 20260902015300 | 65 | 9 | 2.0 | 5.0 | 0.00 | 0.00 | 0.00 | 85 | 1021.1 |
| 20260902014800 | 64 | 9 | 1.0 | 5.0 | 0.00 | 0.00 | 0.00 | 85 | 1021.1 |
| 20260902014300 | 64 | 9 | 0.0 | 3.0 | 0.00 | 0.00 | 0.00 | 85 | 1021.1 |
| 20260902013800 | 64 | 294 | 1.0 | 2.0 | 0.00 | 0.00 | 0.00 | 85 | 1021.1 |
| 20260902013300 | 64 | 294 | 1.0 | 2.0 | 0.00 | 0.00 | 0.00 | 85 | 1021.1 |
| 20260902012800 | 65 | 294 | 1.0 | 3.0 | 0.00 | 0.00 | 0.00 | 85 | 1021.1 |
| 20260902012300 | 65 | 294 | 0.0 | 3.0 | 0.00 | 0.00 | 0.00 | 86 | 1021.1 |
| 20260902011800 | 65 | 295 | 1.0 | 3.0 | 0.00 | 0.00 | 0.00 | 86 | 1021.1 |
| 20260902011300 | 65 | 308 | 1.0 | 3.0 | 0.00 | 0.00 | 0.00 | 85 | 1021.1 |
| 20260902010800 | 65 | 308 | 1.0 | 3.0 | 0.00 | 0.00 | 0.00 | 85 | 1021.1 |
| 20260902010300 | 65 | 307 | 0.0 | 3.0 | 0.00 | 0.00 | 0.00 | 84 | 1021.1 |
| 20260902005301 | 66 | 351 | 0.0 | 3.0 | 0.00 | 0.00 | 0.00 | 83 | 1021.1 |
| 20260902004800 | 66 | 351 | 0.0 | 3.0 | 0.00 | 0.00 | 0.00 | 83 | 1021.1 |
| 20260902003800 | 67 | 351 | 1.0 | 2.0 | 0.00 | 0.00 | 0.00 | 82 | 1021.3 |
| 20260902002800 | 67 | 351 | 2.0 | 3.0 | 0.00 | 0.00 | 0.00 | 81 | 1021.3 |
| 20260902002300 | 67 | 351 | 2.0 | 6.0 | 0.00 | 0.00 | 0.00 | 81 | 1021.3 |
| 20260902001300 | 67 | 5 | 1.0 | 5.0 | 0.00 | 0.00 | 0.00 | 81 | 1021.4 |
| 20260902000802 | 66 | 359 | 2.0 | 5.0 | 0.00 | 0.00 | 0.00 | 82 | 1021.4 |
| 20260902000304 | 66 | 0 | 2.0 | 3.0 | 0.00 | 0.00 | 0.00 | 82 | 1021.4 |
| 20260901235801 | 66 | 0 | 2.0 | 3.0 | 0.00 | 0.00 | 0.00 | 82 | 1021.5 |
| 20260901234800 | 66 | 0 | 2.0 | 5.0 | 0.00 | 0.00 | 0.00 | 83 | 1021.5 |
| 20260901234300 | 66 | 0 | 2.0 | 3.0 | 0.00 | 0.00 | 0.00 | 84 | 1021.5 |
| 20260901233800 | 66 | 0 | 1.0 | 5.0 | 0.00 | 0.00 | 0.00 | 84 | 1021.5 |
| 20260901233301 | 66 | 0 | 0.0 | 5.0 | 0.00 | 0.00 | 0.00 | 84 | 1021.5 |
| 20260901232800 | 66 | 0 | 0.0 | 2.0 | 0.00 | 0.00 | 0.00 | 85 | 1021.5 |
| 20260901232300 | 66 | 0 | 0.0 | 2.0 | 0.00 | 0.00 | 0.00 | 85 | 1021.5 |
| 20260901231801 | 66 | 0 | 0.0 | 2.0 | 0.00 | 0.00 | 0.00 | 85 | 1021.5 |
| 20260901231301 | 66 | 0 | 0.0 | 2.0 | 0.00 | 0.00 | 0.00 | 85 | 1021.4 |
| 20260901230800 | 66 | 0 | 1.0 | 2.0 | 0.00 | 0.00 | 0.00 | 84 | 1021.4 |
| 20260901230301 | 66 | 0 | 2.0 | 5.0 | 0.00 | 0.00 | 0.00 | 84 | 1021.4 |
| 20260901225800 | 66 | 0 | 2.0 | 5.0 | 0.00 | 0.00 | 0.00 | 84 | 1021.3 |
| 20260901224800 | 66 | 2 | 2.0 | 3.0 | 0.00 | 0.00 | 0.00 | 82 | 1021.3 |
| 20260901224300 | 66 | 1 | 1.0 | 3.0 | 0.00 | 0.00 | 0.00 | 81 | 1021.2 |
| 20260901223800 | 67 | 2 | 1.0 | 3.0 | 0.00 | 0.00 | 0.00 | 80 | 1021.2 |
| 20260901223301 | 67 | 2 | 0.0 | 3.0 | 0.00 | 0.00 | 0.00 | 81 | 1021.2 |
| 20260901222801 | 67 | 2 | 0.0 | 2.0 | 0.00 | 0.00 | 0.00 | 80 | 1021.0 |
| 20260901221801 | 67 | 2 | 0.0 | 2.0 | 0.00 | 0.00 | 0.00 | 80 | 1021.0 |
| 20260901221301 | 67 | 2 | 0.0 | 3.0 | 0.00 | 0.00 | 0.00 | 80 | 1021.0 |
| 20260901220846 | 67 | 2 | 0.0 | 3.0 | 0.00 | 0.00 | 0.00 | 79 | 1021.0 |
| 20260901220302 | 67 | 33 | 0.0 | 2.0 | 0.00 | 0.00 | 0.00 | 79 | 1021.0 |
| 20260901215300 | 67 | 33 | 0.0 | 2.0 | 0.00 | 0.00 | 0.00 | 78 | 1021.0 |
| 20260901214801 | 67 | 39 | 0.0 | 2.0 | 0.00 | 0.00 | 0.00 | 77 | 1021.0 |
| 20260901213800 | 68 | 39 | 1.0 | 1.0 | 0.00 | 0.00 | 0.00 | 77 | 1021.0 |
| 20260901213300 | 68 | 39 | 1.0 | 2.0 | 0.00 | 0.00 | 0.00 | 77 | 1021.0 |
| 20260901212801 | 68 | 39 | 2.0 | 3.0 | 0.00 | 0.00 | 0.00 | 77 | 1021.0 |
| 20260901212300 | 68 | 39 | 2.0 | 6.0 | 0.00 | 0.00 | 0.00 | 76 | 1021.0 |
| 20260901211801 | 68 | 46 | 1.0 | 6.0 | 0.00 | 0.00 | 0.00 | 76 | 1021.0 |
| 20260901211300 | 69 | 326 | 0.0 | 6.0 | 0.00 | 0.00 | 0.00 | 76 | 1020.8 |
| 20260901210801 | 69 | 301 | 1.0 | 3.0 | 0.00 | 0.00 | 0.00 | 75 | 1020.8 |
| 20260901210300 | 69 | 342 | 1.0 | 3.0 | 0.00 | 0.00 | 0.00 | 74 | 1020.8 |
| 20260901205301 | 69 | 278 | 1.0 | 2.0 | 0.00 | 0.00 | 0.00 | 74 | 1020.8 |
| 20260901204801 | 69 | 278 | 1.0 | 2.0 | 0.00 | 0.00 | 0.00 | 74 | 1020.8 |
| 20260901204301 | 69 | 278 | 1.0 | 2.0 | 0.00 | 0.00 | 0.00 | 73 | 1020.8 |
| 20260901203800 | 69 | 278 | 1.0 | 5.0 | 0.00 | 0.00 | 0.00 | 74 | 1020.8 |
| 20260901202801 | 70 | 314 | 0.0 | 3.0 | 0.00 | 0.00 | 0.00 | 73 | 1020.8 |
| 20260901202300 | 70 | 180 | 0.0 | 2.0 | 0.00 | 0.00 | 0.00 | 72 | 1020.8 |
| 20260901201801 | 71 | 180 | 1.0 | 2.0 | 0.00 | 0.00 | 0.00 | 71 | 1020.8 |
| 20260901201301 | 71 | 180 | 1.0 | 2.0 | 0.00 | 0.00 | 0.00 | 70 | 1020.7 |
| 20260901200800 | 71 | 180 | 2.0 | 2.0 | 0.00 | 0.00 | 0.00 | 70 | 1020.7 |
| 20260901200301 | 71 | 180 | 2.0 | 5.0 | 0.00 | 0.00 | 0.00 | 70 | 1020.7 |
| 20260901195801 | 71 | 180 | 2.0 | 5.0 | 0.00 | 0.00 | 0.00 | 70 | 1020.5 |
| 20260901195305 | 71 | 3 | 2.0 | 5.0 | 0.00 | 0.00 | 0.00 | 70 | 1020.5 |
| 20260901194800 | 72 | 4 | 2.0 | 3.0 | 0.00 | 0.00 | 0.00 | 67 | 1020.5 |
| 20260901194301 | 72 | 3 | 2.0 | 5.0 | 0.00 | 0.00 | 0.00 | 67 | 1020.5 |
| 20260901193800 | 72 | 3 | 2.0 | 5.0 | 0.00 | 0.00 | 0.00 | 67 | 1020.5 |
| 20260901193301 | 72 | 7 | 2.0 | 5.0 | 0.00 | 0.00 | 0.00 | 66 | 1020.5 |
| 20260901192800 | 72 | 99 | 2.0 | 5.0 | 0.00 | 0.00 | 0.00 | 67 | 1020.3 |
| 20260901192301 | 72 | 4 | 2.0 | 5.0 | 0.00 | 0.00 | 0.00 | 66 | 1020.3 |
| 20260901191800 | 72 | 6 | 2.0 | 5.0 | 0.00 | 0.00 | 0.00 | 66 | 1020.3 |
| 20260901191300 | 72 | 4 | 2.0 | 5.0 | 0.00 | 0.00 | 0.00 | 67 | 1020.1 |
| 20260901190800 | 73 | 353 | 2.0 | 6.0 | 0.00 | 0.00 | 0.00 | 67 | 1020.1 |
| 20260901190300 | 73 | 355 | 2.0 | 6.0 | 0.00 | 0.00 | 0.00 | 65 | 1020.1 |
| 20260901185801 | 73 | 358 | 2.0 | 6.0 | 0.00 | 0.00 | 0.00 | 65 | 1020.0 |
| 20260901185305 | 73 | 50 | 2.0 | 5.0 | 0.00 | 0.00 | 0.00 | 65 | 1020.0 |
| 20260901184801 | 73 | 1 | 3.0 | 5.0 | 0.00 | 0.00 | 0.00 | 65 | 1020.0 |
| 20260901184301 | 73 | 4 | 3.0 | 6.0 | 0.00 | 0.00 | 0.00 | 65 | 1019.9 |
| 20260901183801 | 73 | 354 | 3.0 | 7.0 | 0.00 | 0.00 | 0.00 | 65 | 1019.9 |
| 20260901183301 | 74 | 350 | 3.0 | 7.0 | 0.00 | 0.00 | 0.00 | 64 | 1019.9 |
| 20260901182801 | 74 | 0 | 3.0 | 7.0 | 0.00 | 0.00 | 0.00 | 64 | 1019.8 |
| 20260901182305 | 74 | 22 | 2.0 | 6.0 | 0.00 | 0.00 | 0.00 | 64 | 1019.8 |
| 20260901181801 | 74 | 5 | 2.0 | 6.0 | 0.00 | 0.00 | 0.00 | 64 | 1019.8 |
| 20260901181301 | 75 | 6 | 2.0 | 5.0 | 0.00 | 0.00 | 0.00 | 64 | 1019.7 |
| 20260901180800 | 75 | 6 | 2.0 | 3.0 | 0.00 | 0.00 | 0.00 | 63 | 1019.7 |
| 20260901175801 | 75 | 17 | 2.0 | 6.0 | 0.00 | 0.00 | 0.00 | 63 | 1019.5 |
| 20260901175300 | 76 | 17 | 2.0 | 6.0 | 0.00 | 0.00 | 0.00 | 62 | 1019.5 |
| 20260901174800 | 76 | 6 | 2.0 | 5.0 | 0.00 | 0.00 | 0.00 | 62 | 1019.5 |
| 20260901174300 | 76 | 16 | 2.0 | 5.0 | 0.00 | 0.00 | 0.00 | 62 | 1019.4 |
| 20260901173801 | 76 | 198 | 2.0 | 5.0 | 0.00 | 0.00 | 0.00 | 61 | 1019.4 |
| 20260901173300 | 77 | 197 | 2.0 | 6.0 | 0.00 | 0.00 | 0.00 | 62 | 1019.4 |
| 20260901172301 | 78 | 26 | 2.0 | 5.0 | 0.00 | 0.00 | 0.00 | 59 | 1019.4 |
| 20260901171301 | 79 | 2 | 2.0 | 5.0 | 0.00 | 0.00 | 0.00 | 57 | 1019.5 |
| 20260901170801 | 79 | 40 | 2.0 | 5.0 | 0.00 | 0.00 | 0.00 | 57 | 1019.5 |
| 20260901165802 | 81 | 195 | 2.0 | 3.0 | 0.00 | 0.00 | 0.00 | 57 | 1019.5 |
| 20260901165301 | 81 | 195 | 1.0 | 2.0 | 0.00 | 0.00 | 0.00 | 54 | 1019.5 |
| 20260901164801 | 81 | 195 | 2.0 | 3.0 | 0.00 | 0.00 | 0.00 | 53 | 1019.5 |
| 20260901164300 | 82 | 195 | 2.0 | 5.0 | 0.00 | 0.00 | 0.00 | 55 | 1019.4 |
| 20260901163801 | 82 | 195 | 2.0 | 5.0 | 0.00 | 0.00 | 0.00 | 50 | 1019.4 |
| 20260901163302 | 82 | 215 | 2.0 | 5.0 | 0.00 | 0.00 | 0.00 | 50 | 1019.4 |
| 20260901162800 | 82 | 303 | 2.0 | 6.0 | 0.00 | 0.00 | 0.00 | 50 | 1019.4 |
| 20260901161801 | 82 | 208 | 2.0 | 5.0 | 0.00 | 0.00 | 0.00 | 51 | 1019.4 |
| 20260901161301 | 82 | 216 | 2.0 | 5.0 | 0.00 | 0.00 | 0.00 | 51 | 1019.4 |
| 20260901160802 | 82 | 2 | 2.0 | 5.0 | 0.00 | 0.00 | 0.00 | 51 | 1019.4 |
| 20260901160300 | 81 | 29 | 2.0 | 5.0 | 0.00 | 0.00 | 0.00 | 53 | 1019.4 |
| 20260901155801 | 81 | 190 | 2.0 | 6.0 | 0.00 | 0.00 | 0.00 | 51 | 1019.4 |
| 20260901155301 | 82 | 189 | 2.0 | 7.0 | 0.00 | 0.00 | 0.00 | 50 | 1019.4 |
| 20260901154801 | 82 | 328 | 2.0 | 7.0 | 0.00 | 0.00 | 0.00 | 49 | 1019.4 |
| 20260901154301 | 82 | 350 | 2.0 | 5.0 | 0.00 | 0.00 | 0.00 | 50 | 1019.5 |
| 20260901153802 | 82 | 17 | 2.0 | 7.0 | 0.00 | 0.00 | 0.00 | 51 | 1019.5 |
| 20260901153301 | 82 | 234 | 2.0 | 7.0 | 0.00 | 0.00 | 0.00 | 52 | 1019.5 |
| 20260901152801 | 81 | 353 | 2.0 | 7.0 | 0.00 | 0.00 | 0.00 | 51 | 1019.5 |
| 20260901152301 | 81 | 179 | 2.0 | 6.0 | 0.00 | 0.00 | 0.00 | 52 | 1019.5 |
| 20260901151801 | 82 | 0 | 2.0 | 6.0 | 0.00 | 0.00 | 0.00 | 51 | 1019.5 |
| 20260901151302 | 82 | 195 | 2.0 | 6.0 | 0.00 | 0.00 | 0.00 | 50 | 1019.5 |
| 20260901150801 | 82 | 306 | 2.0 | 7.0 | 0.00 | 0.00 | 0.00 | 51 | 1019.5 |
| 20260901150301 | 83 | 232 | 2.0 | 7.0 | 0.00 | 0.00 | 0.00 | 50 | 1019.5 |
| 20260901145801 | 83 | 168 | 2.0 | 7.0 | 0.00 | 0.00 | 0.00 | 48 | 1019.6 |
| 20260901145306 | 83 | 197 | 2.0 | 7.0 | 0.00 | 0.00 | 0.00 | 48 | 1019.6 |
| 20260901144302 | 84 | 321 | 5.0 | 8.0 | 0.00 | 0.00 | 0.00 | 48 | 1019.5 |
| 20260901143802 | 84 | 151 | 3.0 | 8.0 | 0.00 | 0.00 | 0.00 | 48 | 1019.5 |
| 20260901143301 | 84 | 193 | 3.0 | 7.0 | 0.00 | 0.00 | 0.00 | 48 | 1019.5 |
| 20260901141801 | 84 | 204 | 3.0 | 8.0 | 0.00 | 0.00 | 0.00 | 48 | 1019.5 |
| 20260901141301 | 84 | 197 | 3.0 | 9.0 | 0.00 | 0.00 | 0.00 | 48 | 1019.6 |
| 20260901140302 | 84 | 329 | 3.0 | 9.0 | 0.00 | 0.00 | 0.00 | 47 | 1019.6 |
| 20260901135803 | 84 | 354 | 3.0 | 12.0 | 0.00 | 0.00 | 0.00 | 45 | 1019.6 |
| 20260901135305 | 84 | 318 | 2.0 | 12.0 | 0.00 | 0.00 | 0.00 | 45 | 1019.6 |
| 20260901134301 | 85 | 224 | 2.0 | 5.0 | 0.00 | 0.00 | 0.00 | 44 | 1019.7 |
| 20260901133301 | 85 | 224 | 2.0 | 3.0 | 0.00 | 0.00 | 0.00 | 47 | 1019.7 |
| 20260901132301 | 84 | 167 | 2.0 | 5.0 | 0.00 | 0.00 | 0.00 | 45 | 1019.8 |
| 20260901131801 | 83 | 197 | 2.0 | 6.0 | 0.00 | 0.00 | 0.00 | 48 | 1019.8 |
| 20260901131301 | 83 | 197 | 2.0 | 6.0 | 0.00 | 0.00 | 0.00 | 47 | 1020.0 |
| 20260901130801 | 83 | 194 | 2.0 | 6.0 | 0.00 | 0.00 | 0.00 | 49 | 1020.0 |
| 20260901130301 | 83 | 186 | 2.0 | 6.0 | 0.00 | 0.00 | 0.00 | 47 | 1020.0 |
| 20260901125801 | 82 | 215 | 2.0 | 6.0 | 0.00 | 0.00 | 0.00 | 48 | 1020.1 |
| 20260901125308 | 82 | 265 | 2.0 | 5.0 | 0.00 | 0.00 | 0.00 | 47 | 1020.1 |
| 20260901124802 | 82 | 238 | 2.0 | 5.0 | 0.00 | 0.00 | 0.00 | 49 | 1020.1 |
| 20260901124302 | 82 | 257 | 2.0 | 5.0 | 0.00 | 0.00 | 0.00 | 48 | 1020.1 |
| 20260901123802 | 82 | 197 | 2.0 | 5.0 | 0.00 | 0.00 | 0.00 | 49 | 1020.1 |
| 20260901123301 | 81 | 235 | 2.0 | 6.0 | 0.00 | 0.00 | 0.00 | 50 | 1020.1 |
| 20260901122801 | 81 | 182 | 3.0 | 6.0 | 0.00 | 0.00 | 0.00 | 50 | 1020.3 |
| 20260901122306 | 81 | 194 | 3.0 | 6.0 | 0.00 | 0.00 | 0.00 | 49 | 1020.3 |